TAF and METAR

Decoding for American and Canadian METARs and TAFs is not fully implemented.

Could not understand the following METAR

KMYP 280535Z AUTO 06022KT 10SM CLR M08/M15 A3019 RMK AO2
No TAF available for Monarch Pass Weather Station
Monarch Pass Weather Station in United States of America at 3667m

Latest 5 airports